Fort Worth - NOAA's Hourly Summary for Friday, March 17, 2017
Hour Temp
(f)
RH
(%)
Solar Rad.
(MJ/m2)
Rainfall
(in)
Wind
(mph)
3/17/2017 12:00 AM 67 77 0 0 8.13
3/17/2017 1:00 AM 67 78 0 0 8.53
3/17/2017 2:00 AM 67 79 0 0 7.57
3/17/2017 3:00 AM 66 80 0 0 8.21
3/17/2017 4:00 AM 67 79 0 0 8.14
3/17/2017 5:00 AM 67 78 0 0 6.86
3/17/2017 6:00 AM 67 78 0 0 8.35
3/17/2017 7:00 AM 67 77 0 0 7.96
3/17/2017 8:00 AM 68 75 0.1 0 5.81
3/17/2017 9:00 AM 69 74 0.41 0 10.09
3/17/2017 10:00 AM 70 74 0.61 0 7.08
3/17/2017 11:00 AM 71 72 1.15 0 10.88
3/17/2017 12:00 PM 73 68 2.04 0 10.35
3/17/2017 1:00 PM 74 65 1.85 0 10.15
3/17/2017 2:00 PM 76 62 1.66 0 7.51
3/17/2017 3:00 PM 78 58 2.24 0 8.91
3/17/2017 4:00 PM 77 58 1.6 0 10.16
3/17/2017 5:00 PM 78 57 1.3 0 9.92
3/17/2017 6:00 PM 78 56 0.7 0 7.5
3/17/2017 7:00 PM 76 59 0.13 0 4.96
3/17/2017 8:00 PM 74 61 0 0 5.02
3/17/2017 9:00 PM 73 64 0 0 5.12
3/17/2017 10:00 PM 72 66 0 0 4.64
3/17/2017 11:00 PM 72 65 0 0 6.25
Data Summary 71 69 13.79 0.00 7.84